Time,TemperatureF,DewpointF,PressureIn,WindDirection,WindDirectionDegrees,WindSpeedMPH,WindSpeedGustMPH,Humidity,HourlyPrecipIn,Conditions,Clouds,dailyrainin,SoftwareType,DateUTC
2013-11-28 00:12:00,34.0,30.0,29.52,WNW,298,6.0,18.0,84,0.00,,,2.24,,2013-11-28 05:12:00,
2013-11-28 00:22:00,34.0,29.0,29.54,WNW,297,5.0,16.0,82,0.00,,,2.24,,2013-11-28 05:22:00,
2013-11-28 00:43:00,35.0,29.0,29.54,WSW,255,4.0,19.0,80,0.00,,,2.14,,2013-11-28 05:43:00,
2013-11-28 00:53:00,34.0,28.0,29.55,WNW,290,4.0,14.0,80,0.00,,,2.14,,2013-11-28 05:53:00,
2013-11-28 01:12:00,34.0,29.0,29.56,West,280,7.0,14.0,81,0.00,,,2.14,,2013-11-28 06:12:00,
2013-11-28 01:22:00,34.0,30.0,29.57,West,271,9.0,18.0,84,0.00,,,2.14,,2013-11-28 06:22:00,
2013-11-28 01:42:00,33.0,29.0,29.59,West,262,8.0,16.0,84,0.00,,,1.98,,2013-11-28 06:42:00,
2013-11-28 01:52:00,33.0,28.0,29.60,NNW,328,8.0,21.0,81,0.00,,,1.98,,2013-11-28 06:52:00,
2013-11-28 02:11:00,32.0,27.0,29.62,WNW,283,10.0,21.0,80,0.00,,,1.98,,2013-11-28 07:11:00,
2013-11-28 02:22:00,32.0,26.0,29.63,WSW,256,10.0,24.0,79,0.00,,,1.98,,2013-11-28 07:22:00,
2013-11-28 02:42:00,32.0,26.0,29.65,NW,305,9.0,16.0,78,0.00,,,1.94,,2013-11-28 07:42:00,
2013-11-28 02:52:00,32.0,26.0,29.66,WNW,290,12.0,17.0,77,0.00,,,1.94,,2013-11-28 07:52:00,
2013-11-28 03:11:00,31.0,25.0,29.67,West,280,7.0,17.0,78,0.00,,,1.94,,2013-11-28 08:11:00,
2013-11-28 03:22:00,31.0,25.0,29.68,West,266,9.0,20.0,77,0.00,,,1.94,,2013-11-28 08:22:00,
2013-11-28 03:42:00,31.0,24.0,29.70,WNW,287,9.0,24.0,76,0.00,,,1.83,,2013-11-28 08:42:00,
2013-11-28 03:53:00,30.0,23.0,29.71,West,273,8.0,20.0,76,0.00,,,1.83,,2013-11-28 08:53:00,
2013-11-28 04:11:00,30.0,23.0,29.72,West,264,7.0,21.0,75,0.00,,,1.83,,2013-11-28 09:11:00,
2013-11-28 04:22:00,30.0,23.0,29.73,West,260,9.0,22.0,75,0.00,,,1.83,,2013-11-28 09:22:00,
2013-11-28 04:43:00,29.0,22.0,29.76,WNW,300,9.0,18.0,75,0.00,,,1.64,,2013-11-28 09:43:00,
2013-11-28 04:53:00,28.0,20.0,29.79,NNW,330,10.0,23.0,70,0.00,,,1.64,,2013-11-28 09:53:00,
2013-11-28 05:23:00,27.0,19.0,29.82,West,281,7.0,20.0,70,0.00,,,1.64,,2013-11-28 10:23:00,
2013-11-28 05:43:00,27.0,17.0,29.84,West,263,15.0,27.0,65,0.00,,,1.44,,2013-11-28 10:43:00,
2013-11-28 05:53:00,27.0,17.0,29.85,WNW,285,10.0,33.0,66,0.00,,,1.44,,2013-11-28 10:53:00,
2013-11-28 06:12:00,26.0,16.0,29.87,West,263,12.0,22.0,66,0.00,,,1.44,,2013-11-28 11:12:00,
2013-11-28 06:22:00,26.0,17.0,29.89,West,276,10.0,30.0,67,0.00,,,1.44,,2013-11-28 11:22:00,
2013-11-28 06:42:00,26.0,18.0,29.90,West,278,7.0,18.0,70,0.00,,,1.23,,2013-11-28 11:42:00,
2013-11-28 06:52:00,26.0,18.0,29.91,NW,317,11.0,24.0,70,0.00,,,1.23,,2013-11-28 11:52:00,
2013-11-28 07:12:00,26.0,17.0,29.93,WNW,301,7.0,20.0,69,0.00,,,1.23,,2013-11-28 12:12:00,
2013-11-28 07:22:00,26.0,17.0,29.95,NW,323,9.0,20.0,68,0.00,,,1.23,,2013-11-28 12:22:00,
2013-11-28 07:42:00,26.0,17.0,29.96,NW,308,5.0,23.0,69,0.00,,,0.99,,2013-11-28 12:42:00,
2013-11-28 07:52:00,25.0,16.0,29.97,NW,310,5.0,20.0,68,0.00,,,0.99,,2013-11-28 12:52:00,
2013-11-28 08:11:00,25.0,16.0,29.99,WNW,301,5.0,20.0,67,0.00,,,0.99,,2013-11-28 13:11:00,
2013-11-28 08:22:00,26.0,16.0,30.00,WNW,282,5.0,20.0,65,0.00,,,0.99,,2013-11-28 13:22:00,
2013-11-28 08:42:00,26.0,16.0,30.02,NW,316,5.0,19.0,65,0.00,,,0.72,,2013-11-28 13:42:00,
2013-11-28 08:52:00,26.0,16.0,30.04,West,278,8.0,20.0,64,0.00,,,0.72,,2013-11-28 13:52:00,
2013-11-28 09:11:00,26.0,16.0,30.05,WNW,287,6.0,20.0,64,0.00,,,0.72,,2013-11-28 14:11:00,
2013-11-28 09:22:00,26.0,15.0,30.06,NNE,23,7.0,17.0,63,0.00,,,0.72,,2013-11-28 14:22:00,
2013-11-28 09:42:00,26.0,15.0,30.06,WSW,239,5.0,17.0,62,0.00,,,0.47,,2013-11-28 14:42:00,
2013-11-28 09:52:00,26.0,16.0,30.08,NNE,25,5.0,20.0,64,0.00,,,0.47,,2013-11-28 14:52:00,
2013-11-28 10:12:00,26.0,14.0,30.08,NW,312,6.0,21.0,60,0.00,,,0.47,,2013-11-28 15:12:00,
2013-11-28 10:22:00,27.0,15.0,30.09,West,266,6.0,24.0,59,0.00,,,0.47,,2013-11-28 15:22:00,
2013-11-28 10:44:00,27.0,14.0,30.11,ENE,73,7.0,19.0,58,0.00,,,0.44,,2013-11-28 15:44:00,
2013-11-28 10:54:00,27.0,14.0,30.12,NW,315,8.0,21.0,58,0.00,,,0.44,,2013-11-28 15:54:00,
2013-11-28 11:13:00,27.0,14.0,30.11,WNW,287,9.0,22.0,57,0.00,,,0.44,,2013-11-28 16:13:00,
2013-11-28 11:23:00,27.0,12.0,30.13,WNW,302,11.0,22.0,53,0.00,,,0.44,,2013-11-28 16:23:00,
2013-11-28 11:43:00,27.0,12.0,30.12,NW,323,9.0,26.0,52,0.00,,,0.36,,2013-11-28 16:43:00,
2013-11-28 11:54:00,27.0,11.0,30.14,West,265,10.0,20.0,50,0.00,,,0.36,,2013-11-28 16:54:00,
2013-11-28 12:12:00,27.0,11.0,30.14,WNW,295,8.0,20.0,50,0.00,,,0.36,,2013-11-28 17:12:00,
2013-11-28 12:23:00,28.0,11.0,30.14,West,274,12.0,25.0,48,0.00,,,0.36,,2013-11-28 17:23:00,
2013-11-28 12:42:00,28.0,10.0,30.15,NW,317,4.0,21.0,47,0.00,,,0.27,,2013-11-28 17:42:00,
2013-11-28 12:52:00,28.0,10.0,30.16,WSW,242,10.0,23.0,46,0.00,,,0.27,,2013-11-28 17:52:00,
2013-11-28 13:12:00,29.0,11.0,30.15,WNW,297,6.0,17.0,46,0.00,,,0.27,,2013-11-28 18:12:00,
2013-11-28 13:22:00,28.0,10.0,30.16,WNW,295,7.0,26.0,46,0.00,,,0.27,,2013-11-28 18:22:00,
2013-11-28 13:42:00,28.0,10.0,30.16,West,269,8.0,22.0,46,0.00,,,0.21,,2013-11-28 18:42:00,
2013-11-28 13:52:00,29.0,11.0,30.16,SW,222,3.0,15.0,46,0.00,,,0.21,,2013-11-28 18:52:00,
2013-11-28 14:11:00,29.0,9.0,30.18,WNW,290,8.0,19.0,43,0.00,,,0.21,,2013-11-28 19:11:00,
2013-11-28 14:22:00,30.0,11.0,30.18,WNW,293,3.0,13.0,45,0.00,,,0.21,,2013-11-28 19:22:00,
2013-11-28 14:42:00,29.0,8.0,30.19,West,280,5.0,19.0,41,0.00,,,0.19,,2013-11-28 19:42:00,
2013-11-28 14:52:00,29.0,8.0,30.20,West,268,10.0,21.0,40,0.00,,,0.19,,2013-11-28 19:52:00,
2013-11-28 15:12:00,29.0,9.0,30.21,WNW,302,8.0,19.0,42,0.00,,,0.19,,2013-11-28 20:12:00,
2013-11-28 15:22:00,29.0,9.0,30.22,WNW,290,2.0,14.0,43,0.00,,,0.19,,2013-11-28 20:22:00,
2013-11-28 15:52:00,28.0,9.0,30.24,NNW,345,3.0,11.0,44,0.00,,,0.13,,2013-11-28 20:52:00,
2013-11-28 16:11:00,27.0,9.0,30.25,West,269,5.0,12.0,45,0.00,,,0.13,,2013-11-28 21:11:00,
2013-11-28 16:22:00,27.0,9.0,30.27,WNW,301,3.0,11.0,46,0.00,,,0.13,,2013-11-28 21:22:00,
2013-11-28 16:43:00,26.0,9.0,30.28,WNW,283,2.0,8.0,47,0.00,,,0.13,,2013-11-28 21:43:00,
2013-11-28 16:53:00,26.0,9.0,30.29,WNW,293,6.0,15.0,48,0.00,,,0.13,,2013-11-28 21:53:00,
2013-11-28 17:13:00,25.0,9.0,30.31,West,266,3.0,13.0,50,0.00,,,0.13,,2013-11-28 22:13:00,
2013-11-28 17:23:00,25.0,9.0,30.32,West,278,1.0,5.0,51,0.00,,,0.13,,2013-11-28 22:23:00,
2013-11-28 17:42:00,25.0,10.0,30.34,West,266,1.0,7.0,52,0.00,,,0.11,,2013-11-28 22:42:00,
2013-11-28 17:53:00,24.0,9.0,30.35,NW,304,2.0,7.0,53,0.00,,,0.11,,2013-11-28 22:53:00,
2013-11-28 18:12:00,24.0,9.0,30.35,WSW,258,1.0,5.0,53,0.00,,,0.11,,2013-11-28 23:12:00,
2013-11-28 18:22:00,24.0,10.0,30.36,WNW,301,1.0,3.0,55,0.00,,,0.11,,2013-11-28 23:22:00,
2013-11-28 18:42:00,23.0,11.0,30.37,WSW,257,0.0,3.0,59,0.00,,,0.04,,2013-11-28 23:42:00,
2013-11-28 18:52:00,23.0,10.0,30.38,West,260,0.0,3.0,58,0.00,,,0.04,,2013-11-28 23:52:00,
2013-11-28 19:11:00,23.0,10.0,30.38,West,276,0.0,3.0,57,0.00,,,0.04,,2013-11-29 00:11:00,
2013-11-28 19:22:00,23.0,10.0,30.39,West,273,1.0,5.0,57,0.00,,,0.04,,2013-11-29 00:22:00,
2013-11-28 19:42:00,22.0,11.0,30.40,WSW,253,0.0,1.0,62,0.00,,,0.02,,2013-11-29 00:42:00,
2013-11-28 19:52:00,22.0,11.0,30.40,West,276,0.0,3.0,62,0.00,,,0.02,,2013-11-29 00:52:00,
2013-11-28 20:12:00,22.0,11.0,30.41,WSW,251,0.0,3.0,62,0.00,,,0.02,,2013-11-29 01:12:00,
2013-11-28 20:22:00,21.0,10.0,30.41,West,270,2.0,5.0,62,0.00,,,0.02,,2013-11-29 01:22:00,
2013-11-28 20:42:00,22.0,10.0,30.42,West,268,0.0,3.0,60,0.00,,,0.00,,2013-11-29 01:42:00,
2013-11-28 20:52:00,22.0,11.0,30.42,West,273,0.0,3.0,62,0.00,,,0.00,,2013-11-29 01:52:00,
2013-11-28 21:12:00,22.0,12.0,30.42,West,277,1.0,5.0,64,0.00,,,0.00,,2013-11-29 02:12:00,
2013-11-28 21:22:00,22.0,11.0,30.43,WSW,242,2.0,4.0,63,0.00,,,0.00,,2013-11-29 02:22:00,
2013-11-28 21:42:00,22.0,12.0,30.44,West,269,1.0,4.0,65,0.00,,,0.00,,2013-11-29 02:42:00,
2013-11-28 21:52:00,21.0,12.0,30.45,West,269,0.0,2.0,68,0.00,,,0.00,,2013-11-29 02:52:00,
2013-11-28 22:22:00,21.0,12.0,30.45,West,259,0.0,3.0,67,0.00,,,0.00,,2013-11-29 03:22:00,
2013-11-28 22:43:00,21.0,12.0,30.45,WSW,258,0.0,1.0,68,0.00,,,0.00,,2013-11-29 03:43:00,
2013-11-28 22:54:00,21.0,12.0,30.45,NW,309,0.0,3.0,68,0.00,,,0.00,,2013-11-29 03:54:00,
2013-11-28 23:23:00,20.0,12.0,30.46,West,269,0.0,2.0,70,0.00,,,0.00,,2013-11-29 04:23:00,
2013-11-28 23:43:00,21.0,13.0,30.46,West,271,1.0,2.0,70,0.00,,,0.00,,2013-11-29 04:43:00,
2013-11-28 23:52:00,21.0,13.0,30.47,West,262,0.0,2.0,70,0.00,,,0.00,,2013-11-29 04:52:00,